Bellaire, MI

5:06 PM EDT on July 24, 2017 (GMT -0400)
Antrim County

Weather History for KACB - March, 2013

Change the Weather History Date:

Wednesday, March 13, 2013

  Actual Average (KCVX) Record (KCVX)
Temperature  
Mean Temperature 24 °F -  
Max Temperature 28 °F 34 °F 57 °F (2007)
Min Temperature 19 °F 20 °F -6 °F (2014)
Degree Days  
Heating Degree Days 42    
Moisture  
Dew Point 17 °F    
Average Humidity 74    
Maximum Humidity 91    
Minimum Humidity 55    
Precipitation  
Precipitation 0.00 in - - ()
Sea Level Pressure  
Sea Level Pressure 30.02 in    
Wind  
Wind Speed 5 mph (NW)    
Max Wind Speed 15 mph    
Max Gust Speed 26 mph    
Visibility 7 miles    
Events Snow    
Averages and records for this station are not official NWS values.
T = Trace of Precipitation, MM = Missing Value Source: NWS Daily Summary

Daily Weather History Graph

Daily Weather History Graph

Search for Another Location

Airport or City:

Trip Planner

Search our weather history database for the weather conditions in past years. The results will help you decide how hot, cold, wet, or windy it might be!

Date:

Astronomy

Mar. 13, 2013 Rise Set
Actual Time 7:56 AM EDT 7:44 PM EDT
Civil Twilight 7:27 AM EDT 8:13 PM EDT
Nautical Twilight 6:53 AM EDT 8:47 PM EDT
Astronomical Twilight 6:18 AM EDT 9:22 PM EDT
Moon 8:28 AM EDT (3/13) 10:08 PM EDT (3/13)
Length of Visible Light 12h 46m
Length of Day
11h 48m
Waxing Crescent, 4% of the Moon is Illuminated
Mar 13
Waxing Crescent
Mar 19
First Quarter
Mar 27
Full
Apr 3
Last Quarter
Apr 10
New

Hourly Weather History & Observations

Time (EDT) Temp. Windchill Dew Point Humidity Pressure Visibility Wind Dir Wind Speed Gust Speed Precip Events Conditions
12:14 AM 23.9 °F 18.0 °F 21.2 °F 89% 29.85 in 3.0 mi NNW 4.6 mph - N/A   Overcast
12:35 AM 23.7 °F - 21.2 °F 90% 29.85 in 3.0 mi Calm Calm - N/A   Overcast
12:54 AM 23.5 °F - 21.0 °F 90% 29.85 in 4.0 mi Calm Calm - N/A Snow Light Snow
1:14 AM 23.5 °F - 21.2 °F 91% 29.85 in 3.0 mi Calm Calm - N/A Snow Light Snow
1:54 AM 23.0 °F - 20.1 °F 89% 29.84 in 7.0 mi Calm Calm - N/A Snow Light Snow
2:15 AM 23.0 °F - 20.1 °F 89% 29.85 in 4.0 mi Calm Calm - N/A Snow Light Snow
2:34 AM 23.4 °F - 20.7 °F 89% 29.84 in 1.5 mi Calm Calm - N/A Snow Light Snow
2:54 AM 23.4 °F 16.2 °F 21.2 °F 91% 29.84 in 2.5 mi West 5.8 mph - N/A Snow Light Snow
3:14 AM 23.0 °F - 20.8 °F 91% 29.84 in 1.0 mi Calm Calm - N/A Snow Snow
3:34 AM 23.4 °F - 21.2 °F 91% 29.83 in 1.2 mi Calm Calm - N/A Snow Snow
3:55 AM 23.0 °F - 20.8 °F 91% 29.83 in 4.0 mi Calm Calm - N/A Snow Light Snow
4:14 AM 23.0 °F 15.8 °F 20.5 °F 90% 29.84 in 1.0 mi WNW 5.8 mph - N/A Snow Snow
4:55 AM 21.9 °F 15.7 °F 18.9 °F 88% 29.85 in 5.0 mi NW 4.6 mph - N/A Snow Light Snow
5:14 AM 21.7 °F 15.5 °F 17.6 °F 84% 29.86 in 7.0 mi NNW 4.6 mph - N/A Snow Light Snow
5:35 AM 21.2 °F 13.6 °F 16.9 °F 83% 29.87 in 4.0 mi NW 5.8 mph - N/A Snow Light Snow
5:55 AM 21.0 °F 13.4 °F 15.8 °F 80% 29.88 in 7.0 mi NW 5.8 mph - N/A Snow Light Snow
6:14 AM 20.7 °F 14.2 °F 15.4 °F 80% 29.89 in 7.0 mi NW 4.6 mph - N/A Snow Light Snow
6:35 AM 19.9 °F 13.4 °F 15.8 °F 84% 29.90 in 7.0 mi NW 4.6 mph - N/A   Overcast
6:55 AM 20.1 °F 13.6 °F 15.6 °F 83% 29.90 in 5.0 mi NW 4.6 mph - N/A Snow Light Snow
7:14 AM 19.9 °F 13.4 °F 16.2 °F 85% 29.91 in 5.0 mi NW 4.6 mph - N/A Snow Light Snow
7:35 AM 19.9 °F 14.9 °F 16.5 °F 87% 29.91 in 2.5 mi NW 3.5 mph - N/A Snow Light Snow
7:55 AM 19.9 °F - 17.1 °F 89% 29.92 in 2.0 mi Calm Calm - N/A Snow Light Snow
8:35 AM 20.1 °F 15.2 °F 17.1 °F 88% 29.93 in 5.0 mi NW 3.5 mph - N/A Snow Light Snow
8:54 AM 20.3 °F 10.6 °F 16.7 °F 86% 29.94 in 1.8 mi NW 8.1 mph - N/A Snow Light Snow
9:14 AM 21.0 °F 12.4 °F 17.4 °F 86% 29.95 in 2.5 mi NW 6.9 mph - N/A Snow Light Snow
9:35 AM 21.2 °F 11.7 °F 17.2 °F 85% 29.96 in 2.5 mi NW 8.1 mph 19.6 mph N/A Snow Light Snow
9:54 AM 21.2 °F 12.6 °F 17.6 °F 86% 29.97 in 2.0 mi NNW 6.9 mph - N/A Snow Light Snow
10:15 AM 22.1 °F 12.8 °F 18.1 °F 85% 29.98 in 2.0 mi North 8.1 mph - N/A Snow Light Snow
10:34 AM 22.6 °F 15.3 °F 18.5 °F 84% 29.98 in 2.5 mi NW 5.8 mph - N/A Snow Light Snow
10:55 AM 23.7 °F 16.6 °F 18.5 °F 80% 29.99 in 10.0 mi NNW 5.8 mph - N/A   Overcast
11:15 AM 24.6 °F 15.1 °F 18.0 °F 76% 30.00 in 10.0 mi North 9.2 mph 18.4 mph N/A   Overcast
11:34 AM 24.6 °F 16.7 °F 17.1 °F 73% 30.01 in 10.0 mi NNW 6.9 mph 21.9 mph N/A   Overcast
11:55 AM 25.2 °F 13.9 °F 17.2 °F 72% 30.02 in 10.0 mi NNW 12.7 mph 19.6 mph N/A   Mostly Cloudy
12:15 PM 25.7 °F 15.7 °F 17.4 °F 71% 30.03 in 10.0 mi NNW 10.4 mph 17.3 mph N/A   Scattered Clouds
12:34 PM 25.7 °F 14.6 °F 16.7 °F 69% 30.03 in 10.0 mi NW 12.7 mph 20.7 mph N/A   Mostly Cloudy
12:55 PM 26.2 °F 17.8 °F 17.4 °F 69% 30.05 in 10.0 mi NNW 8.1 mph 24.2 mph N/A   Overcast
1:15 PM 26.6 °F 17.5 °F 17.2 °F 68% 30.05 in 10.0 mi NW 9.2 mph 20.7 mph N/A   Overcast
1:35 PM 26.8 °F 16.5 °F 17.1 °F 67% 30.06 in 7.0 mi NNW 11.5 mph 21.9 mph N/A   Mostly Cloudy
1:55 PM 27.7 °F 18.2 °F 17.4 °F 65% 30.07 in 10.0 mi NNW 10.4 mph 20.7 mph N/A   Mostly Cloudy
2:14 PM 27.5 °F 16.8 °F 17.1 °F 65% 30.07 in 10.0 mi NW 12.7 mph 20.7 mph N/A   Mostly Cloudy
2:35 PM 27.5 °F 19.3 °F 15.6 °F 61% 30.08 in 10.0 mi NW 8.1 mph 20.7 mph N/A   Scattered Clouds
2:55 PM 28.4 °F 19.7 °F 16.5 °F 61% 30.07 in 10.0 mi WNW 9.2 mph 21.9 mph N/A   Scattered Clouds
3:14 PM 28.0 °F 19.3 °F 16.0 °F 61% 30.08 in 10.0 mi NW 9.2 mph 23.0 mph N/A   Mostly Cloudy
3:35 PM 28.4 °F 17.5 °F 16.0 °F 60% 30.08 in 10.0 mi NW 13.8 mph 19.6 mph N/A   Scattered Clouds
3:55 PM 28.4 °F 19.7 °F 14.9 °F 57% 30.08 in 7.0 mi NW 9.2 mph 24.2 mph N/A   Scattered Clouds
4:14 PM 28.9 °F 20.4 °F 15.3 °F 57% 30.09 in 10.0 mi NNW 9.2 mph 19.6 mph N/A   Scattered Clouds
4:35 PM 28.8 °F 19.0 °F 15.1 °F 57% 30.09 in 10.0 mi NW 11.5 mph 21.9 mph N/A   Clear
4:55 PM 28.9 °F 21.9 °F 14.5 °F 55% 30.10 in 10.0 mi WNW 6.9 mph 26.5 mph N/A   Clear
5:15 PM 28.4 °F 19.1 °F 15.6 °F 59% 30.11 in 10.0 mi WNW 10.4 mph 19.6 mph N/A   Scattered Clouds
5:35 PM 28.4 °F 17.5 °F 15.6 °F 59% 30.12 in 10.0 mi NW 13.8 mph 26.5 mph N/A   Mostly Cloudy
5:55 PM 28.2 °F 18.9 °F 15.1 °F 58% 30.13 in 10.0 mi WNW 10.4 mph 20.7 mph N/A   Scattered Clouds
6:15 PM 28.2 °F 16.8 °F 14.2 °F 56% 30.14 in 10.0 mi NW 15.0 mph 21.9 mph N/A   Scattered Clouds
6:35 PM 28.2 °F 18.9 °F 14.5 °F 57% 30.15 in 10.0 mi WNW 10.4 mph 24.2 mph N/A   Scattered Clouds
6:55 PM 27.9 °F 19.8 °F 15.1 °F 59% 30.15 in 10.0 mi WNW 8.1 mph 20.7 mph N/A   Scattered Clouds
7:15 PM 27.7 °F 17.6 °F 13.6 °F 56% 30.15 in 10.0 mi WNW 11.5 mph 18.4 mph N/A   Scattered Clouds
7:35 PM 27.5 °F 18.0 °F 13.8 °F 56% 30.15 in 10.0 mi WNW 10.4 mph 16.1 mph N/A   Clear
7:54 PM 27.3 °F 19.1 °F 14.4 °F 58% 30.16 in 10.0 mi NW 8.1 mph - N/A   Clear
8:15 PM 27.1 °F 18.9 °F 14.2 °F 58% 30.16 in 10.0 mi NW 8.1 mph - N/A   Clear
8:35 PM 26.8 °F 18.5 °F 14.5 °F 60% 30.17 in 10.0 mi NW 8.1 mph - N/A   Clear
8:54 PM 26.6 °F 20.0 °F 14.9 °F 61% 30.18 in 10.0 mi NW 5.8 mph - N/A   Clear
9:15 PM 26.6 °F 18.2 °F 15.3 °F 62% 30.18 in 10.0 mi NW 8.1 mph - N/A   Scattered Clouds
9:35 PM 26.6 °F 19.1 °F 16.7 °F 66% 30.18 in 10.0 mi NNW 6.9 mph - N/A   Mostly Cloudy
9:55 PM 26.1 °F 19.4 °F 17.6 °F 70% 30.18 in 10.0 mi NNW 5.8 mph - N/A   Scattered Clouds
10:15 PM 25.3 °F 17.6 °F 17.6 °F 72% 30.19 in 10.0 mi NW 6.9 mph - N/A   Clear
10:35 PM 25.2 °F 18.3 °F 17.6 °F 73% 30.19 in 10.0 mi NNW 5.8 mph - N/A   Clear
10:55 PM 25.2 °F 20.9 °F 17.1 °F 71% 30.19 in 10.0 mi NNW 3.5 mph - N/A   Clear
11:15 PM 24.8 °F 17.9 °F 16.7 °F 71% 30.19 in 10.0 mi NNW 5.8 mph - N/A   Clear
11:35 PM 24.8 °F 17.9 °F 16.5 °F 71% 30.18 in 10.0 mi NW 5.8 mph - N/A   Clear
11:54 PM 23.9 °F 19.5 °F 16.5 °F 73% 30.18 in 10.0 mi NW 3.5 mph - N/A   Clear